This is the latest recevied weather packets stored in our database for station/object WL7CLI. If no packets are shown the sender has not sent any weather packets the latest 10 day(s).
| Time | Temp. | Humidity | Pressure | Rain* | Wind** | Luminosity | Snow |
|---|---|---|---|---|---|---|---|
| 1777304797 | 18.89° C | 80% | - | 0 mm | - | - | - |
| 1777304103 | 18.33° C | 83% | - | 0 mm | - | - | - |
| 1777303725 | 18.33° C | 84% | 999.4 hPa | 0 mm | - | - | - |
| 1777303596 | 18.33° C | 84% | - | 0 mm | - | - | - |
| 1777302903 | 17.78° C | 86% | - | 0 mm | - | - | - |
| 1777302398 | 17.22° C | 87% | - | 0 mm | - | - | - |
| 1777301925 | 17.22° C | 85% | 998.4 hPa | 0 mm | - | - | - |
| 1777301702 | 16.67° C | 86% | - | 0 mm | - | - | - |
| 1777301197 | 16.67° C | 88% | - | 0 mm | - | - | - |
| 1777300504 | 16.67° C | 89% | - | 0 mm | - | - | - |
| 1777300125 | 16.11° C | 88% | 998.5 hPa | 0 mm | - | - | - |
| 1777299997 | 16.11° C | 89% | - | 0.25 mm | - | - | - |
| 1777299304 | 16.11° C | 90% | - | 0.25 mm | - | - | - |
| 1777298797 | 15.56° C | 90% | - | 0.25 mm | - | - | - |
| 1777298325 | 15.56° C | 91% | 999.2 hPa | 0.25 mm | - | - | - |
| 1777298103 | 15.56° C | 91% | - | 0.25 mm | - | - | - |
| 1777297596 | 15.56° C | 89% | - | 0.25 mm | - | - | - |
| 1777296903 | 15.56° C | 88% | - | 0.25 mm | - | - | - |
| 1777296525 | 15.56° C | 87% | 994.3 hPa | 0.25 mm | - | - | - |
| 1777296399 | 15.56° C | 87% | - | 0.51 mm | - | - | - |
| 1777295702 | 15.56° C | 88% | - | 0.51 mm | - | - | - |
| 1777295197 | 15° C | 90% | - | 0.51 mm | - | - | - |
| 1777294725 | 15° C | 90% | 1001.2 hPa | 0.25 mm | - | - | - |
| 1777294502 | 15.56° C | 89% | - | 1.52 mm | - | - | - |
| 1777293999 | 15.56° C | 88% | - | 1.52 mm | - | - | - |
* Rain latest hour (hover to see other rain measurements)
** Current wind speed in m/s (hover to see current wind gust speed)